Warsaw, Poland

6:56 PM CET on February 24, 2017 (GMT +0100)
Warsaw Frederic Chopin Airport

Weather History for EPWA - December, 2013

Change the Weather History Date:

Wednesday, December 25, 2013

  Actual Average Record
Temperature  
Mean Temperature 44 °F -  
Max Temperature 50 °F 32 °F 50 °F (2013)
Min Temperature 38 °F 22 °F 0 °F (2002)
Degree Days  
Heating Degree Days 21    
Moisture  
Dew Point 33 °F    
Average Humidity 63    
Maximum Humidity 81    
Minimum Humidity 44    
Precipitation  
Precipitation 0.00 in 0.03 in - ()
Sea Level Pressure  
Sea Level Pressure 29.64 in    
Wind  
Wind Speed 10 mph ()    
Max Wind Speed 15 mph    
Max Gust Speed -    
Visibility 13.8 miles    
Events      
Averages and records for this station are not official NWS values.
T = Trace of Precipitation, MM = Missing Value Source: Averaged Metar Reports

Daily Weather History Graph

Daily Weather History Graph

Search for Another Location

Airport or City:

Trip Planner

Search our weather history database for the weather conditions in past years. The results will help you decide how hot, cold, wet, or windy it might be!

Date:

Astronomy

Dec. 25, 2013 Rise Set
Actual Time 7:44 AM CET 3:28 PM CET
Civil Twilight 7:03 AM CET 4:09 PM CET
Nautical Twilight 6:19 AM CET 4:53 PM CET
Astronomical Twilight 5:37 AM CET 5:34 PM CET
Moon No Moon Rise 11:04 AM CET (12/25)
Length of Visible Light 9h 05m
Length of Day
7h 43m
Waning Gibbous, 51% of the Moon is Illuminated
Dec 25
Waning Gibbous
Dec 25
Last Quarter
Jan 1
New
Jan 8
First Quarter
Jan 16
Full

Hourly Weather History & Observations

Time (CET) Temp. Windchill Dew Point Humidity Pressure Visibility Wind Dir Wind Speed Gust Speed Precip Events Conditions
12:00 AM 41 °F - 34 °F 66% 29.78 in 12 mi SE 8.9 mph - -   Clear
12:00 AM 41.0 °F 34.3 °F 33.8 °F 76% 29.77 in - SSE 11.5 mph - N/A   Clear
12:30 AM 41.0 °F 34.3 °F 33.8 °F 76% 29.74 in - SSE 11.5 mph - N/A   Clear
1:00 AM 41 °F - 33 °F 64% 29.76 in 12 mi SSE 6.7 mph - -   Clear
1:00 AM 41.0 °F 35.2 °F 33.8 °F 76% 29.74 in - SSE 9.2 mph - N/A   Clear
1:30 AM 39.2 °F 32.0 °F 32.0 °F 75% 29.74 in - SSE 11.5 mph - N/A   Clear
2:00 AM 40 °F - 32 °F 64% 29.76 in 12 mi SE 4.5 mph - -   Clear
2:00 AM 39.2 °F 33.6 °F 32.0 °F 75% 29.74 in - SSE 8.1 mph - N/A   Clear
2:30 AM 39.2 °F 33.6 °F 32.0 °F 75% 29.74 in - SSE 8.1 mph - N/A   Clear
3:00 AM 39 °F - 32 °F 68% 29.76 in 12 mi SE 4.5 mph - -   Clear
3:00 AM 39.2 °F 33.6 °F 32.0 °F 75% 29.74 in - SSE 8.1 mph - N/A   Clear
3:30 AM 39.2 °F 33.0 °F 32.0 °F 75% 29.71 in - SSE 9.2 mph - N/A   Clear
4:00 AM 39 °F - 32 °F 68% 29.73 in 12 mi SE 8.9 mph - -   Clear
4:00 AM 39.2 °F 32.5 °F 32.0 °F 75% 29.71 in - SSE 10.4 mph - N/A   Clear
4:30 AM 39.2 °F 33.0 °F 32.0 °F 75% 29.71 in - SSE 9.2 mph - N/A   Clear
5:00 AM 39 °F - 32 °F 67% 29.72 in 12 mi SE 6.7 mph - -  
5:00 AM 37.4 °F 30.8 °F 32.0 °F 81% 29.68 in - SSE 9.2 mph - N/A   Clear
5:30 AM 39.2 °F 32.5 °F 32.0 °F 75% 29.68 in - SSE 10.4 mph - N/A   Clear
6:00 AM 40 °F - 32 °F 65% 29.70 in 12 mi SE 8.9 mph - -  
6:00 AM 39.2 °F 32.5 °F 32.0 °F 75% 29.68 in - SSE 10.4 mph - N/A   Clear
6:30 AM 39.2 °F 33.0 °F 32.0 °F 75% 29.68 in - SSE 9.2 mph - N/A   Clear
7:00 AM 41 °F - 33 °F 62% 29.69 in 12 mi SSE 6.7 mph - -   Clear
7:00 AM 41.0 °F 34.7 °F 33.8 °F 76% 29.65 in - SSE 10.4 mph - N/A   Clear
7:30 AM 41.0 °F 33.9 °F 33.8 °F 76% 29.65 in - SSE 12.7 mph - N/A   Clear
8:00 AM 41 °F - 33 °F 63% 29.68 in 12 mi SE 8.9 mph - -   Clear
8:00 AM 41.0 °F 33.9 °F 33.8 °F 76% 29.65 in - SSE 12.7 mph - N/A   Clear
8:30 AM 41.0 °F 33.5 °F 33.8 °F 76% 29.65 in - SSE 13.8 mph - N/A   Clear
9:00 AM 43 °F - 33 °F 58% 29.67 in 12 mi SSE 8.9 mph - -   Clear
9:00 AM 42.8 °F 36.2 °F 33.8 °F 70% 29.65 in - SSE 12.7 mph - N/A   Clear
9:30 AM 44.6 °F 38.4 °F 33.8 °F 66% 29.62 in - SSE 12.7 mph - N/A   Clear
10:00 AM 46 °F - 35 °F 54% 29.65 in 12 mi SSE 11.2 mph - -   Clear
10:00 AM 44.6 °F 38.1 °F 35.6 °F 71% 29.62 in - SSE 13.8 mph - N/A   Clear
10:30 AM 46.4 °F 40.1 °F 35.6 °F 66% 29.62 in - SSE 15.0 mph - N/A   Clear
11:00 AM 48 °F - 36 °F 51% 29.64 in 12 mi SSE 11.2 mph - -   Clear
11:00 AM 48.2 °F - 35.6 °F 62% 29.62 in - SSE 15.0 mph - N/A   Clear
11:30 AM 48.2 °F - 35.6 °F 62% 29.62 in - SSE 15.0 mph - N/A   Clear
12:00 PM 50 °F - 36 °F 47% 29.62 in 12 mi SSE 11.2 mph - -   Clear
12:00 PM 48.2 °F - 35.6 °F 62% 29.59 in - SSE 13.8 mph - N/A   Clear
12:30 PM 50.0 °F - 35.6 °F 58% 29.59 in - SSE 12.7 mph - N/A   Clear
1:00 PM 50 °F - 36 °F 48% 29.61 in 12 mi SSE 8.9 mph - -   Scattered Clouds
1:00 PM 50.0 °F - 35.6 °F 58% 29.59 in - SSE 12.7 mph - N/A   Clear
1:30 PM 48.2 °F - 35.6 °F 62% 29.59 in - SSE 12.7 mph - N/A   Clear
2:00 PM 50 °F - 36 °F 48% 29.59 in 12 mi SSE 8.9 mph - -   Partly Cloudy
2:00 PM 50.0 °F - 35.6 °F 58% 29.56 in - SSE 12.7 mph - N/A   Clear
2:30 PM 50.0 °F - 35.6 °F 58% 29.56 in - SSE 15.0 mph - N/A   Clear
3:00 PM 49 °F - 35 °F 47% 29.58 in 19 mi SSE 11.2 mph - -   Scattered Clouds
3:00 PM 48.2 °F - 35.6 °F 62% 29.56 in - SSE 13.8 mph - N/A   Clear
3:30 PM 48.2 °F - 33.8 °F 58% 29.56 in - SSE 13.8 mph - N/A   Clear
4:00 PM 48 °F - 33 °F 45% 29.59 in 19 mi SSE 11.2 mph - -   Scattered Clouds
4:00 PM 48.2 °F - 33.8 °F 58% 29.56 in - SSE 15.0 mph - N/A   Clear
4:30 PM 46.4 °F 40.4 °F 32.0 °F 57% 29.56 in - SSE 13.8 mph - N/A   Clear
5:00 PM 47 °F - 32 °F 44% 29.59 in 19 mi SSE 11.2 mph - -   Scattered Clouds
5:00 PM 46.4 °F 40.4 °F 32.0 °F 57% 29.56 in - SSE 13.8 mph - N/A   Clear
5:30 PM 46.4 °F 41.1 °F 32.0 °F 57% 29.59 in - SSE 11.5 mph - N/A   Clear
6:00 PM 46 °F - 31 °F 44% 29.61 in 19 mi SSE 8.9 mph - -   Scattered Clouds
6:00 PM 44.6 °F 38.1 °F 30.2 °F 57% 29.59 in - SSE 13.8 mph - N/A   Clear
6:30 PM 44.6 °F 38.1 °F 30.2 °F 57% 29.59 in - SSE 13.8 mph - N/A   Clear
7:00 PM 45 °F - 31 °F 47% 29.59 in 19 mi SE 11.2 mph - -   Scattered Clouds
7:00 PM 44.6 °F 38.1 °F 30.2 °F 57% 29.56 in - SSE 13.8 mph - N/A   Clear
7:30 PM 44.6 °F 38.1 °F 30.2 °F 57% 29.59 in - SSE 13.8 mph - N/A   Clear
8:00 PM 45 °F - 32 °F 48% 29.61 in 19 mi SSE 8.9 mph - -   Clear
8:00 PM 44.6 °F 38.4 °F 30.2 °F 57% 29.59 in - SSE 12.7 mph - N/A   Clear
8:30 PM 44.6 °F 38.4 °F 32.0 °F 61% 29.59 in - SSE 12.7 mph - N/A   Clear
9:00 PM 44 °F - 32 °F 51% 29.61 in 12 mi SSE 11.2 mph - -   Clear
9:00 PM 44.6 °F 38.1 °F 32.0 °F 61% 29.59 in - SSE 13.8 mph - N/A   Clear
9:30 PM 42.8 °F 35.8 °F 32.0 °F 66% 29.59 in - SSE 13.8 mph - N/A   Clear
10:00 PM 43 °F - 32 °F 55% 29.61 in 12 mi SE 11.2 mph - -   Clear
10:00 PM 42.8 °F 35.8 °F 32.0 °F 66% 29.59 in - SSE 13.8 mph - N/A   Clear
10:30 PM 42.8 °F 37.0 °F 32.0 °F 66% 29.59 in - SE 10.4 mph - N/A   Clear
11:00 PM 43 °F - 33 °F 57% 29.62 in 12 mi SE 8.9 mph - -   Clear
11:00 PM 42.8 °F 36.6 °F 32.0 °F 66% 29.59 in - SSE 11.5 mph - N/A   Clear
11:30 PM 42.8 °F 36.6 °F 32.0 °F 66% 29.59 in - SSE 11.5 mph - N/A   Clear